Regional Weather Roundup
Issued by NWS

Home | Current Version | Previous Version | Text Only | Print | Product List | Glossary Off
Versions: 1 2 3 4 5 6 7 8 9 10 11 12 13 14 15 16 17 18 19 20 21 22 23 24 25 26 27 28 29 30 31 32 33 34 35 36 37 38 39 40 41 42 43 44 45 46 47 48 49 50

000
ASUS45 KABQ 032101
RWRNM
WEATHER ROUNDUP FOR NEW MEXICO
NATIONAL WEATHER SERVICE ALBUQUERQUE NM
200 PM MST TUE MAR 03 2015

NOTE: "FAIR" MEANS FEW OR NO CLOUDS BELOW 12,000 FEET AGL WITH NO
       SIGNIFICANT WEATHER OR OBSTRUCTIONS TO VISION.

      THIS PRODUCT IS RELEASED AS TWO VERSIONS.  ONE VERSION NEAR
      THE TOP OF THE HOUR CONTAINING PRELIMINARY DATA FROM ALBUQUERQUE
      AND OTHER STATIONS.  A FINAL VERSION WITH ADDITIONAL DATA IS
      ISSUED ABOUT 10 MINUTES AFTER THE HOUR.

NMZ501-503-504-510>518-032200-
NORTHWEST PLATEAU/NORTHCENTRAL MOUNTAINS

CITY           SKY/WX    TMP DP  RH WIND       PRES   REMARKS
FARMINGTON     PTSUNNY   46  27  47 SW7       29.79F
SANTA FE       MOSUNNY   47  26  44 SW16G22   29.80F
TAOS           SUNNY     39  21  48 W10       29.80F WCI  32
ANGEL FIRE     FAIR      36  18  48 W12G23    29.76F WCI  27

$$
NMZ402-403-502-505>509-032200-
WESTCENTRAL MOUNTAINS/SOUTHWEST MOUNTAINS

CITY           SKY/WX    TMP DP  RH WIND       PRES   REMARKS
GALLUP         PTSUNNY   43  29  57 SW15      29.83F
SILVER CITY    FAIR      54  27  35 SW21G29   29.89F

$$
NMZ407-409-411-412-032200-
SOUTHERN DESERTS

CITY           SKY/WX    TMP DP  RH WIND       PRES   REMARKS
DEMING         CLOUDY    55  42  61 SW16      29.88F
HOLLOMAN AFB   PTSUNNY   56  48  72 W10       29.84F
ALAMOGORDO     PTSUNNY   55  46  71 S7        29.87F
T OR C         FAIR      63  19  18 SW24G36   29.79F

$$
NMZ519>523-032200-
CENTRAL VALLEYS/CENTRAL HIGHLANDS

CITY           SKY/WX    TMP DP  RH WIND       PRES   REMARKS
ALBUQUERQUE    PTSUNNY   50  28  42 VRB5      29.80F
DOUBLE EAGLE   MOSUNNY   52  27  37 SW14      29.80
MORIARTY ARPT  FAIR      53  28  38 SW22G29   29.80F
CLINES CORNERS MOSUNNY   48  29  47 SW28G39   29.76F
BELEN          FAIR      54  33  44 CALM      29.78F
SOCORRO        NOT AVBL

$$
NMZ524>526-539-540-032200-
SOUTHCENTRAL MOUNTAINS

CITY           SKY/WX    TMP DP  RH WIND       PRES   REMARKS
RUIDOSO        NOT AVBL

$$
NMZ527>531-032200-
NORTHEAST HIGHLANDS/NORTHEAST PLAINS

CITY           SKY/WX    TMP DP  RH WIND       PRES   REMARKS
LAS VEGAS      MOSUNNY   44  25  47 SW24G32   29.76F
RATON          SUNNY     50  18  28 S21       29.68F
CLAYTON        CLOUDY    50  30  46 S13       29.72F

$$
NMZ532>537-032200-
EASTCENTRAL PLAINS

CITY           SKY/WX    TMP DP  RH WIND       PRES   REMARKS
TUCUMCARI      CLOUDY    57  33  40 SW10      29.75F
CANNON AFB     CLOUDY    53  40  60 SW8       29.79F
CLOVIS AIRPORT CLOUDY    54  41  62 S12       29.78F

$$
NMZ028-029-538-032200-
SOUTHEAST PLAINS

CITY           SKY/WX    TMP DP  RH WIND       PRES   REMARKS
ROSWELL        CLOUDY    56  43  61 SE10      29.82F
ARTESIA        DRIZZLE   46  46 100 SE3       29.84F
CARLSBAD       PTSUNNY   57  40  52 N18       29.82F
HOBBS          MOSUNNY   59  41  51 CALM      29.84F


$$



USA.gov is the U.S. government's official web portal to all federal, state and local government web resources and services.